Location: L'Union
(43.6635°N, 1.4699°E)
Time: 00:14:09
(UTC+02:00)

Envisat - Pass Details

Date: 08 August 2021
Orbit: 764 x 766 km, 98.2° (Epoch: 17 September)

Event Time Altitude Azimuth Distance (km) Brightness Sun altitude
Rises 05:44:23 0° 34° (NE) 3,240 7.7 -11.3°
Reaches altitude 10° 05:48:13 10° 63° (ENE) 2,307 7.0 -10.7°
Maximum altitude 05:50:19 12° 88° (E) 2,133 6.2 -10.4°
Drops below altitude 10° 05:52:25 10° 113° (ESE) 2,299 6.0 -10.1°
Sets 05:56:12 0° 142° (SE) 3,218 6.3 -9.5°
